Year,Month,Day,Hour,Minute,Value (Times are PST for temperature in C)
2014,05,24,00,00,11.30
2014,05,24,00,01,11.30
2014,05,24,00,02,11.30
2014,05,24,00,03,11.30
2014,05,24,00,04,11.30
2014,05,24,00,05,11.20
2014,05,24,00,06,11.20
2014,05,24,00,07,11.20
2014,05,24,00,08,11.20
2014,05,24,00,09,11.20
2014,05,24,00,10,11.20
2014,05,24,00,11,11.20
2014,05,24,00,12,11.10
2014,05,24,00,13,11.10
2014,05,24,00,14,11.10
2014,05,24,00,15,11.10
2014,05,24,00,16,11.10
2014,05,24,00,17,11.10
2014,05,24,00,18,11.20
2014,05,24,00,19,11.20
2014,05,24,00,20,11.20
2014,05,24,00,21,11.20
2014,05,24,00,22,11.20
2014,05,24,00,23,11.20
2014,05,24,00,24,11.20
2014,05,24,00,25,11.20
2014,05,24,00,26,11.20
2014,05,24,00,27,11.20
2014,05,24,00,28,11.20
2014,05,24,00,29,11.20
2014,05,24,00,30,11.20
2014,05,24,00,31,11.20
2014,05,24,00,32,11.20
2014,05,24,00,33,11.20
2014,05,24,00,34,11.20
2014,05,24,00,35,11.20
2014,05,24,00,36,11.20
2014,05,24,00,37,11.20
2014,05,24,00,38,11.10
2014,05,24,00,39,11.10
2014,05,24,00,40,11.10
2014,05,24,00,41,11.10
2014,05,24,00,42,11.10
2014,05,24,00,43,11.10
2014,05,24,00,44,11.10
2014,05,24,00,45,11.10
2014,05,24,00,46,11.10
2014,05,24,00,47,11.10
2014,05,24,00,48,11.10
2014,05,24,00,49,11.10
2014,05,24,00,50,11.00
2014,05,24,00,51,10.90
2014,05,24,00,52,10.90
2014,05,24,00,53,10.90
2014,05,24,00,54,10.90
2014,05,24,00,55,10.80
2014,05,24,00,56,10.80
2014,05,24,00,57,10.70
2014,05,24,00,58,10.70
2014,05,24,00,59,10.70
2014,05,24,01,00,10.60
2014,05,24,01,01,10.60
2014,05,24,01,02,10.70
2014,05,24,01,03,10.70
2014,05,24,01,04,10.70
2014,05,24,01,05,10.70
2014,05,24,01,06,10.70
2014,05,24,01,07,10.80
2014,05,24,01,08,10.80
2014,05,24,01,09,10.80
2014,05,24,01,10,10.80
2014,05,24,01,11,10.90
2014,05,24,01,12,10.90
2014,05,24,01,13,10.90
2014,05,24,01,14,10.90
2014,05,24,01,15,10.90
2014,05,24,01,16,11.10
2014,05,24,01,17,11.10
2014,05,24,01,18,11.10
2014,05,24,01,19,11.10
2014,05,24,01,20,11.10
2014,05,24,01,21,11.10
2014,05,24,01,22,11.10
2014,05,24,01,23,11.10
2014,05,24,01,24,11.10
2014,05,24,01,25,11.10
2014,05,24,01,26,11.10
2014,05,24,01,27,11.10
2014,05,24,01,28,11.10
2014,05,24,01,29,11.10
2014,05,24,01,30,11.10
2014,05,24,01,31,11.10
2014,05,24,01,32,11.10
2014,05,24,01,33,11.10
2014,05,24,01,34,11.10
2014,05,24,01,35,11.10
2014,05,24,01,36,11.10
2014,05,24,01,37,11.10
2014,05,24,01,38,11.10
2014,05,24,01,39,11.10
2014,05,24,01,40,11.10
2014,05,24,01,41,11.10
2014,05,24,01,42,11.10
2014,05,24,01,43,11.10
2014,05,24,01,44,11.10
2014,05,24,01,45,11.10
2014,05,24,01,46,11.10
2014,05,24,01,47,11.00
2014,05,24,01,48,10.90
2014,05,24,01,49,10.90
2014,05,24,01,50,10.90
2014,05,24,01,51,10.90
2014,05,24,01,52,10.90
2014,05,24,01,53,10.90
2014,05,24,01,54,10.90
2014,05,24,01,55,11.00
2014,05,24,01,56,11.10
2014,05,24,01,57,11.10
2014,05,24,01,58,11.10
2014,05,24,01,59,11.10
2014,05,24,02,00,11.10
2014,05,24,02,01,11.10
2014,05,24,02,02,11.10
2014,05,24,02,03,11.10
2014,05,24,02,04,11.10
2014,05,24,02,05,11.10
2014,05,24,02,06,11.10
2014,05,24,02,07,11.10
2014,05,24,02,08,11.10
2014,05,24,02,09,11.10
2014,05,24,02,10,11.10
2014,05,24,02,11,11.10
2014,05,24,02,12,11.10
2014,05,24,02,13,11.10
2014,05,24,02,14,11.10
2014,05,24,02,15,11.10
2014,05,24,02,16,11.10
2014,05,24,02,17,11.10
2014,05,24,02,18,11.10
2014,05,24,02,19,11.10
2014,05,24,02,20,11.10
2014,05,24,02,21,11.10
2014,05,24,02,22,11.10
2014,05,24,02,23,11.10
2014,05,24,02,24,11.10
2014,05,24,02,25,11.10
2014,05,24,02,26,11.10
2014,05,24,02,27,11.10
2014,05,24,02,28,11.00
2014,05,24,02,29,10.90
2014,05,24,02,30,10.90
2014,05,24,02,31,10.90
2014,05,24,02,32,10.90
2014,05,24,02,33,11.00
2014,05,24,02,34,11.10
2014,05,24,02,35,11.10
2014,05,24,02,36,11.10
2014,05,24,02,37,11.10
2014,05,24,02,38,11.10
2014,05,24,02,39,11.10
2014,05,24,02,40,11.10
2014,05,24,02,41,11.10
2014,05,24,02,42,11.10
2014,05,24,02,43,11.00
2014,05,24,02,44,10.90
2014,05,24,02,45,10.90
2014,05,24,02,46,10.90
2014,05,24,02,47,10.90
2014,05,24,02,48,10.90
2014,05,24,02,49,10.90
2014,05,24,02,50,10.90
2014,05,24,02,51,10.90
2014,05,24,02,52,10.90
2014,05,24,02,53,10.90
2014,05,24,02,54,10.90
2014,05,24,02,55,10.90
2014,05,24,02,56,10.90
2014,05,24,02,57,10.90
2014,05,24,02,58,10.90
2014,05,24,02,59,10.90
2014,05,24,03,00,10.90
2014,05,24,03,01,10.90
2014,05,24,03,02,10.90
2014,05,24,03,03,10.90
2014,05,24,03,04,10.90
2014,05,24,03,05,10.90
2014,05,24,03,06,10.90
2014,05,24,03,07,10.90
2014,05,24,03,08,10.80
2014,05,24,03,09,10.80
2014,05,24,03,10,10.80
2014,05,24,03,11,10.80
2014,05,24,03,12,10.80
2014,05,24,03,13,10.80
2014,05,24,03,14,10.70
2014,05,24,03,15,10.70
2014,05,24,03,16,10.70
2014,05,24,03,17,10.70
2014,05,24,03,18,10.60
2014,05,24,03,19,10.60
2014,05,24,03,20,10.60
2014,05,24,03,21,10.60
2014,05,24,03,22,10.60
2014,05,24,03,23,10.60
2014,05,24,03,24,10.60
2014,05,24,03,25,10.60
2014,05,24,03,26,10.60
2014,05,24,03,27,10.60
2014,05,24,03,28,10.60
2014,05,24,03,29,10.60
2014,05,24,03,30,10.60
2014,05,24,03,31,10.60
2014,05,24,03,32,10.60
2014,05,24,03,33,10.60
2014,05,24,03,34,10.60
2014,05,24,03,35,10.60
2014,05,24,03,36,10.60
2014,05,24,03,37,10.60
2014,05,24,03,38,10.60
2014,05,24,03,39,10.60
2014,05,24,03,40,10.60
2014,05,24,03,41,10.60
2014,05,24,03,42,10.60
2014,05,24,03,43,10.60
2014,05,24,03,44,10.50
2014,05,24,03,45,10.40
2014,05,24,03,46,10.40
2014,05,24,03,47,10.40
2014,05,24,03,48,10.40
2014,05,24,03,49,10.40
2014,05,24,03,50,10.40
2014,05,24,03,51,10.30
2014,05,24,03,52,10.30
2014,05,24,03,53,10.30
2014,05,24,03,54,10.20
2014,05,24,03,55,10.20
2014,05,24,03,56,10.20
2014,05,24,03,57,10.10
2014,05,24,03,58,10.10
2014,05,24,03,59,10.10
2014,05,24,04,00,10.10
2014,05,24,04,01,10.10
2014,05,24,04,02,10.10
2014,05,24,04,03,10.10
2014,05,24,04,04,10.10
2014,05,24,04,05,10.10
2014,05,24,04,06,10.10
2014,05,24,04,07,10.10
2014,05,24,04,08,10.10
2014,05,24,04,09,10.10
2014,05,24,04,10,10.10
2014,05,24,04,11,10.10
2014,05,24,04,12,10.10
2014,05,24,04,13,10.10
2014,05,24,04,14,10.00
2014,05,24,04,15,9.90
2014,05,24,04,16,9.90
2014,05,24,04,17,9.90
2014,05,24,04,18,9.90
2014,05,24,04,19,9.90
2014,05,24,04,20,9.90
2014,05,24,04,21,9.90
2014,05,24,04,22,9.90
2014,05,24,04,23,9.90
2014,05,24,04,24,9.90
2014,05,24,04,25,9.90
2014,05,24,04,26,9.90
2014,05,24,04,27,9.90
2014,05,24,04,28,9.90
2014,05,24,04,29,9.90
2014,05,24,04,30,9.90
2014,05,24,04,31,9.90
2014,05,24,04,32,9.90
2014,05,24,04,33,9.90
2014,05,24,04,34,9.90
2014,05,24,04,35,9.90
2014,05,24,04,36,9.90
2014,05,24,04,37,9.90
2014,05,24,04,38,9.90
2014,05,24,04,39,9.90
2014,05,24,04,40,9.90
2014,05,24,04,41,9.90
2014,05,24,04,42,9.90
2014,05,24,04,43,9.90
2014,05,24,04,44,9.90
2014,05,24,04,45,9.90
2014,05,24,04,46,9.90
2014,05,24,04,47,9.90
2014,05,24,04,48,9.80
2014,05,24,04,49,9.80
2014,05,24,04,50,9.80
2014,05,24,04,51,9.80
2014,05,24,04,52,9.80
2014,05,24,04,53,9.80
2014,05,24,04,54,9.80
2014,05,24,04,55,9.80
2014,05,24,04,56,9.70
2014,05,24,04,57,9.70
2014,05,24,04,58,9.70
2014,05,24,04,59,9.70
2014,05,24,05,00,9.70
2014,05,24,05,01,9.70
2014,05,24,05,02,9.70
2014,05,24,05,03,9.70
2014,05,24,05,04,9.70
2014,05,24,05,05,9.70
2014,05,24,05,06,9.60
2014,05,24,05,07,9.60
2014,05,24,05,08,9.60
2014,05,24,05,09,9.60
2014,05,24,05,10,9.60
2014,05,24,05,11,9.70
2014,05,24,05,12,9.70
2014,05,24,05,13,9.70
2014,05,24,05,14,9.60
2014,05,24,05,15,9.60
2014,05,24,05,16,9.60
2014,05,24,05,17,9.60
2014,05,24,05,18,9.70
2014,05,24,05,19,9.70
2014,05,24,05,20,9.70
2014,05,24,05,21,9.70
2014,05,24,05,22,9.70
2014,05,24,05,23,9.80
2014,05,24,05,24,9.80
2014,05,24,05,25,9.80
2014,05,24,05,26,9.90
2014,05,24,05,27,9.90
2014,05,24,05,28,9.90
2014,05,24,05,29,9.90
2014,05,24,05,30,9.90
2014,05,24,05,31,9.90
2014,05,24,05,32,9.90
2014,05,24,05,33,9.90
2014,05,24,05,34,9.90
2014,05,24,05,35,9.90
2014,05,24,05,36,9.90
2014,05,24,05,37,9.90
2014,05,24,05,38,9.90
2014,05,24,05,39,9.90
2014,05,24,05,40,9.90
2014,05,24,05,41,9.90
2014,05,24,05,42,9.90
2014,05,24,05,43,9.90
2014,05,24,05,44,9.90
2014,05,24,05,45,9.80
2014,05,24,05,46,9.80
2014,05,24,05,47,9.80
2014,05,24,05,48,9.80
2014,05,24,05,49,9.80
2014,05,24,05,50,9.80
2014,05,24,05,51,9.80
2014,05,24,05,52,9.90
2014,05,24,05,53,9.90
2014,05,24,05,54,9.90
2014,05,24,05,55,9.90
2014,05,24,05,56,9.90
2014,05,24,05,57,9.90
2014,05,24,05,58,9.90
2014,05,24,05,59,9.90
2014,05,24,06,00,9.90
2014,05,24,06,01,9.80
2014,05,24,06,02,9.80
2014,05,24,06,03,9.80
2014,05,24,06,04,9.80
2014,05,24,06,05,9.80
2014,05,24,06,06,9.80
2014,05,24,06,07,9.80
2014,05,24,06,08,9.80
2014,05,24,06,09,9.80
2014,05,24,06,10,9.70
2014,05,24,06,11,9.70
2014,05,24,06,12,9.70
2014,05,24,06,13,9.80
2014,05,24,06,14,9.80
2014,05,24,06,15,9.90
2014,05,24,06,16,9.90
2014,05,24,06,17,9.90
2014,05,24,06,18,9.90
2014,05,24,06,19,9.90
2014,05,24,06,20,10.00
2014,05,24,06,21,10.10
2014,05,24,06,22,10.10
2014,05,24,06,23,10.10
2014,05,24,06,24,10.10
2014,05,24,06,25,10.10
2014,05,24,06,26,10.10
2014,05,24,06,27,10.10
2014,05,24,06,28,10.20
2014,05,24,06,29,10.20
2014,05,24,06,30,10.20
2014,05,24,06,31,10.30
2014,05,24,06,32,10.30
2014,05,24,06,33,10.30
2014,05,24,06,34,10.40
2014,05,24,06,35,10.40
2014,05,24,06,36,10.40
2014,05,24,06,37,10.40
2014,05,24,06,38,10.40
2014,05,24,06,39,10.40
2014,05,24,06,40,10.40
2014,05,24,06,41,10.50
2014,05,24,06,42,10.60
2014,05,24,06,43,10.60
2014,05,24,06,44,10.60
2014,05,24,06,45,10.60
2014,05,24,06,46,10.60
2014,05,24,06,47,10.60
2014,05,24,06,48,10.70
2014,05,24,06,49,10.70
2014,05,24,06,50,10.70
2014,05,24,06,51,10.70
2014,05,24,06,52,10.80
2014,05,24,06,53,10.80
2014,05,24,06,54,10.80
2014,05,24,06,55,10.80
2014,05,24,06,56,10.90
2014,05,24,06,57,10.90
2014,05,24,06,58,10.90
2014,05,24,06,59,10.90
2014,05,24,07,00,10.90
2014,05,24,07,01,10.90
2014,05,24,07,02,10.90
2014,05,24,07,03,10.90
2014,05,24,07,04,10.90
2014,05,24,07,05,10.90
2014,05,24,07,06,11.00
2014,05,24,07,07,11.10
2014,05,24,07,08,11.10
2014,05,24,07,09,11.10
2014,05,24,07,10,11.10
2014,05,24,07,11,11.20
2014,05,24,07,12,11.20
2014,05,24,07,13,11.20
2014,05,24,07,14,11.30
2014,05,24,07,15,11.30
2014,05,24,07,16,11.30
2014,05,24,07,17,11.40
2014,05,24,07,18,11.40
2014,05,24,07,19,11.40
2014,05,24,07,20,11.40
2014,05,24,07,21,11.50
2014,05,24,07,22,11.60
2014,05,24,07,23,11.60
2014,05,24,07,24,11.60
2014,05,24,07,25,11.60
2014,05,24,07,26,11.60
2014,05,24,07,27,11.60
2014,05,24,07,28,11.60
2014,05,24,07,29,11.60
2014,05,24,07,30,11.70
2014,05,24,07,31,11.70
2014,05,24,07,32,11.80
2014,05,24,07,33,11.80
2014,05,24,07,34,11.80
2014,05,24,07,35,11.80
2014,05,24,07,36,11.80
2014,05,24,07,37,11.80
2014,05,24,07,38,11.80
2014,05,24,07,39,11.80
2014,05,24,07,40,11.90
2014,05,24,07,41,11.90
2014,05,24,07,42,11.90
2014,05,24,07,43,11.90
2014,05,24,07,44,12.00
2014,05,24,07,45,12.00
2014,05,24,07,46,12.00
2014,05,24,07,47,12.00
2014,05,24,07,48,12.00
2014,05,24,07,49,12.00
2014,05,24,07,50,12.00
2014,05,24,07,51,12.10
2014,05,24,07,52,12.10
2014,05,24,07,53,12.10
2014,05,24,07,54,12.20
2014,05,24,07,55,12.20
2014,05,24,07,56,12.20
2014,05,24,07,57,12.30
2014,05,24,07,58,12.30
2014,05,24,07,59,12.30
2014,05,24,08,00,12.40
2014,05,24,08,01,12.40
2014,05,24,08,02,12.40
2014,05,24,08,03,12.50
2014,05,24,08,04,12.50
2014,05,24,08,05,12.50
2014,05,24,08,06,12.50
2014,05,24,08,07,12.50
2014,05,24,08,08,12.60
2014,05,24,08,09,12.60
2014,05,24,08,10,12.70
2014,05,24,08,11,12.70
2014,05,24,08,12,12.70
2014,05,24,08,13,12.80
2014,05,24,08,14,12.80
2014,05,24,08,15,12.80
2014,05,24,08,16,12.80
2014,05,24,08,17,12.80
2014,05,24,08,18,12.90
2014,05,24,08,19,12.90
2014,05,24,08,20,13.00
2014,05,24,08,21,13.00
2014,05,24,08,22,13.10
2014,05,24,08,23,13.10
2014,05,24,08,24,13.20
2014,05,24,08,25,13.20
2014,05,24,08,26,13.30
2014,05,24,08,27,13.30
2014,05,24,08,28,13.30
2014,05,24,08,29,13.30
2014,05,24,08,30,13.30
2014,05,24,08,31,13.40
2014,05,24,08,32,13.50
2014,05,24,08,33,13.50
2014,05,24,08,34,13.50
2014,05,24,08,35,13.60
2014,05,24,08,36,13.60
2014,05,24,08,37,13.60
2014,05,24,08,38,13.60
2014,05,24,08,39,13.60
2014,05,24,08,40,13.60
2014,05,24,08,41,13.70
2014,05,24,08,42,13.70
2014,05,24,08,43,13.80
2014,05,24,08,44,13.80
2014,05,24,08,45,13.90
2014,05,24,08,46,13.90
2014,05,24,08,47,13.90
2014,05,24,08,48,14.00
2014,05,24,08,49,14.00
2014,05,24,08,50,14.00
2014,05,24,08,51,14.00
2014,05,24,08,52,14.10
2014,05,24,08,53,14.10
2014,05,24,08,54,14.10
2014,05,24,08,55,14.10
2014,05,24,08,56,14.10
2014,05,24,08,57,14.10
2014,05,24,08,58,14.10
2014,05,24,08,59,14.10
2014,05,24,09,00,14.10
2014,05,24,09,01,14.20
2014,05,24,09,02,14.20
2014,05,24,09,03,14.20
2014,05,24,09,04,14.30
2014,05,24,09,05,14.40
2014,05,24,09,06,14.50
2014,05,24,09,07,14.60
2014,05,24,09,08,14.60
2014,05,24,09,09,14.50
2014,05,24,09,10,14.60
2014,05,24,09,11,14.70
2014,05,24,09,12,14.80
2014,05,24,09,13,14.80
2014,05,24,09,14,14.80
2014,05,24,09,15,14.80
2014,05,24,09,16,14.80
2014,05,24,09,17,14.90
2014,05,24,09,18,15.00
2014,05,24,09,19,15.00
2014,05,24,09,20,15.00
2014,05,24,09,21,14.90
2014,05,24,09,22,14.90
2014,05,24,09,23,14.90
2014,05,24,09,24,14.80
2014,05,24,09,25,14.90
2014,05,24,09,26,14.90
2014,05,24,09,27,15.00
2014,05,24,09,28,15.10
2014,05,24,09,29,15.10
2014,05,24,09,30,15.10
2014,05,24,09,31,15.10
2014,05,24,09,32,15.10
2014,05,24,09,33,15.20
2014,05,24,09,34,15.30
2014,05,24,09,35,15.30
2014,05,24,09,36,15.40
2014,05,24,09,37,15.40
2014,05,24,09,38,15.50
2014,05,24,09,39,15.40
2014,05,24,09,40,15.30
2014,05,24,09,41,15.40
2014,05,24,09,42,15.50
2014,05,24,09,43,15.50
2014,05,24,09,44,15.60
2014,05,24,09,45,15.60
2014,05,24,09,46,15.60
2014,05,24,09,47,15.60
2014,05,24,09,48,15.70
2014,05,24,09,49,15.80
2014,05,24,09,50,15.80
2014,05,24,09,51,15.90
2014,05,24,09,52,15.90
2014,05,24,09,53,16.00
2014,05,24,09,54,15.90
2014,05,24,09,55,15.90
2014,05,24,09,56,16.00
2014,05,24,09,57,16.10
2014,05,24,09,58,16.10
2014,05,24,09,59,16.10
2014,05,24,10,00,16.10
2014,05,24,10,01,16.10
2014,05,24,10,02,16.10
2014,05,24,10,03,16.10
2014,05,24,10,04,16.10
2014,05,24,10,05,16.10
2014,05,24,10,06,16.10
2014,05,24,10,07,15.90
2014,05,24,10,08,15.90
2014,05,24,10,09,15.90
2014,05,24,10,10,15.80
2014,05,24,10,11,15.80
2014,05,24,10,12,15.80
2014,05,24,10,13,15.80
2014,05,24,10,14,15.90
2014,05,24,10,15,16.10
2014,05,24,10,16,16.10
2014,05,24,10,17,16.10
2014,05,24,10,18,16.10
2014,05,24,10,19,16.10
2014,05,24,10,20,16.00
2014,05,24,10,21,15.90
2014,05,24,10,22,15.90
2014,05,24,10,23,15.80
2014,05,24,10,24,15.80
2014,05,24,10,25,15.80
2014,05,24,10,26,15.80
2014,05,24,10,27,15.80
2014,05,24,10,28,15.80
2014,05,24,10,29,15.70
2014,05,24,10,30,15.70
2014,05,24,10,31,15.70
2014,05,24,10,32,15.70
2014,05,24,10,33,15.80
2014,05,24,10,34,15.80
2014,05,24,10,35,15.80
2014,05,24,10,36,15.90
2014,05,24,10,37,16.00
2014,05,24,10,38,16.20
2014,05,24,10,39,16.20
2014,05,24,10,40,16.20
2014,05,24,10,41,16.20
2014,05,24,10,42,16.20
2014,05,24,10,43,16.20
2014,05,24,10,44,16.30
2014,05,24,10,45,16.30
2014,05,24,10,46,16.40
2014,05,24,10,47,16.40
2014,05,24,10,48,16.40
2014,05,24,10,49,16.20
2014,05,24,10,50,16.20
2014,05,24,10,51,16.20
2014,05,24,10,52,16.10
2014,05,24,10,53,16.10
2014,05,24,10,54,16.20
2014,05,24,10,55,16.30
2014,05,24,10,56,16.30
2014,05,24,10,57,16.20
2014,05,24,10,58,16.20
2014,05,24,10,59,16.20
2014,05,24,11,00,16.20
2014,05,24,11,01,16.30
2014,05,24,11,02,16.40
2014,05,24,11,03,16.40
2014,05,24,11,04,16.40
2014,05,24,11,05,16.30
2014,05,24,11,06,16.10
2014,05,24,11,07,16.00
2014,05,24,11,08,16.00
2014,05,24,11,09,16.10
2014,05,24,11,10,16.10
2014,05,24,11,11,16.30
2014,05,24,11,12,16.30
2014,05,24,11,13,16.40
2014,05,24,11,14,16.40
2014,05,24,11,15,16.40
2014,05,24,11,16,16.30
2014,05,24,11,17,16.20
2014,05,24,11,18,16.20
2014,05,24,11,19,16.30
2014,05,24,11,20,16.30
2014,05,24,11,21,16.30
2014,05,24,11,22,16.30
2014,05,24,11,23,16.30
2014,05,24,11,24,16.40
2014,05,24,11,25,16.40
2014,05,24,11,26,16.40
2014,05,24,11,27,16.50
2014,05,24,11,28,16.50
2014,05,24,11,29,16.40
2014,05,24,11,30,16.40
2014,05,24,11,31,16.40
2014,05,24,11,32,16.40
2014,05,24,11,33,16.40
2014,05,24,11,34,16.40
2014,05,24,11,35,16.40
2014,05,24,11,36,16.40
2014,05,24,11,37,16.40
2014,05,24,11,38,16.60
2014,05,24,11,39,16.70
2014,05,24,11,40,16.80
2014,05,24,11,41,16.70
2014,05,24,11,42,16.70
2014,05,24,11,43,16.70
2014,05,24,11,44,16.70
2014,05,24,11,45,16.70
2014,05,24,11,46,16.70
2014,05,24,11,47,16.60
2014,05,24,11,48,16.60
2014,05,24,11,49,16.60
2014,05,24,11,50,16.40
2014,05,24,11,51,16.30
2014,05,24,11,52,16.20
2014,05,24,11,53,16.20
2014,05,24,11,54,16.20
2014,05,24,11,55,16.20
2014,05,24,11,56,16.10
2014,05,24,11,57,16.10
2014,05,24,11,58,16.10
2014,05,24,11,59,16.10
2014,05,24,12,00,16.10
2014,05,24,12,01,16.10
2014,05,24,12,02,16.00
2014,05,24,12,03,15.90
2014,05,24,12,04,15.90
2014,05,24,12,05,15.80
2014,05,24,12,06,15.80
2014,05,24,12,07,15.80
2014,05,24,12,08,15.80
2014,05,24,12,09,15.80
2014,05,24,12,10,15.80
2014,05,24,12,11,15.80
2014,05,24,12,12,15.80
2014,05,24,12,13,15.90
2014,05,24,12,14,16.10
2014,05,24,12,15,16.20
2014,05,24,12,16,16.30
2014,05,24,12,17,16.30
2014,05,24,12,18,16.30
2014,05,24,12,19,16.10
2014,05,24,12,20,16.10
2014,05,24,12,21,16.10
2014,05,24,12,22,16.10
2014,05,24,12,23,16.10
2014,05,24,12,24,15.90
2014,05,24,12,25,15.90
2014,05,24,12,26,15.80
2014,05,24,12,27,15.80
2014,05,24,12,28,15.80
2014,05,24,12,29,15.80
2014,05,24,12,30,15.80
2014,05,24,12,31,15.90
2014,05,24,12,32,16.00
2014,05,24,12,33,16.00
2014,05,24,12,34,15.90
2014,05,24,12,35,15.90
2014,05,24,12,36,16.00
2014,05,24,12,37,16.10
2014,05,24,12,38,16.10
2014,05,24,12,39,16.10
2014,05,24,12,40,16.10
2014,05,24,12,41,16.10
2014,05,24,12,42,16.10
2014,05,24,12,43,16.10
2014,05,24,12,44,16.10
2014,05,24,12,45,16.00
2014,05,24,12,46,15.90
2014,05,24,12,47,15.90
2014,05,24,12,48,15.80
2014,05,24,12,49,15.80
2014,05,24,12,50,15.80
2014,05,24,12,51,15.80
2014,05,24,12,52,15.80
2014,05,24,12,53,15.80
2014,05,24,12,54,15.80
2014,05,24,12,55,15.80
2014,05,24,12,56,15.80
2014,05,24,12,57,15.80
2014,05,24,12,58,15.70
2014,05,24,12,59,15.70
2014,05,24,13,00,15.70
2014,05,24,13,01,15.60
2014,05,24,13,02,15.60
2014,05,24,13,03,15.70
2014,05,24,13,04,15.80
2014,05,24,13,05,15.90
2014,05,24,13,06,16.00
2014,05,24,13,07,16.10
2014,05,24,13,08,16.10
2014,05,24,13,09,16.10
2014,05,24,13,10,16.10
2014,05,24,13,11,16.10
2014,05,24,13,12,16.10
2014,05,24,13,13,16.20
2014,05,24,13,14,16.20
2014,05,24,13,15,16.30
2014,05,24,13,16,16.40
2014,05,24,13,17,16.50
2014,05,24,13,18,16.60
2014,05,24,13,19,16.70
2014,05,24,13,20,16.70
2014,05,24,13,21,16.70
2014,05,24,13,22,16.70
2014,05,24,13,23,16.70
2014,05,24,13,24,16.70
2014,05,24,13,25,16.60
2014,05,24,13,26,16.60
2014,05,24,13,27,16.70
2014,05,24,13,28,16.80
2014,05,24,13,29,16.90
2014,05,24,13,30,16.90
2014,05,24,13,31,17.00
2014,05,24,13,32,17.00
2014,05,24,13,33,17.00
2014,05,24,13,34,16.90
2014,05,24,13,35,16.90
2014,05,24,13,36,16.90
2014,05,24,13,37,17.00
2014,05,24,13,38,17.10
2014,05,24,13,39,17.20
2014,05,24,13,40,17.30
2014,05,24,13,41,17.30
2014,05,24,13,42,17.20
2014,05,24,13,43,17.20
2014,05,24,13,44,17.20
2014,05,24,13,45,17.30
2014,05,24,13,46,17.30
2014,05,24,13,47,17.30
2014,05,24,13,48,17.30
2014,05,24,13,49,17.30
2014,05,24,13,50,17.30
2014,05,24,13,51,17.40
2014,05,24,13,52,17.40
2014,05,24,13,53,17.40
2014,05,24,13,54,17.30
2014,05,24,13,55,17.30
2014,05,24,13,56,17.30
2014,05,24,13,57,17.30
2014,05,24,13,58,17.30
2014,05,24,13,59,17.40
2014,05,24,14,00,17.50
2014,05,24,14,01,17.50
2014,05,24,14,02,17.50
2014,05,24,14,03,17.60
2014,05,24,14,04,17.60
2014,05,24,14,05,17.60
2014,05,24,14,06,17.60
2014,05,24,14,07,17.60
2014,05,24,14,08,17.70
2014,05,24,14,09,17.70
2014,05,24,14,10,17.60
2014,05,24,14,11,17.60
2014,05,24,14,12,17.50
2014,05,24,14,13,17.60
2014,05,24,14,14,17.60
2014,05,24,14,15,17.70
2014,05,24,14,16,17.60
2014,05,24,14,17,17.70
2014,05,24,14,18,17.70
2014,05,24,14,19,17.80
2014,05,24,14,20,17.80
2014,05,24,14,21,17.90
2014,05,24,14,22,17.90
2014,05,24,14,23,17.90
2014,05,24,14,24,18.10
2014,05,24,14,25,18.20
2014,05,24,14,26,18.20
2014,05,24,14,27,18.20
2014,05,24,14,28,18.20
2014,05,24,14,29,18.20
2014,05,24,14,30,18.20
2014,05,24,14,31,18.20
2014,05,24,14,32,18.20
2014,05,24,14,33,18.20
2014,05,24,14,34,18.20
2014,05,24,14,35,18.20
2014,05,24,14,36,18.20
2014,05,24,14,37,18.20
2014,05,24,14,38,18.30
2014,05,24,14,39,18.40
2014,05,24,14,40,18.60
2014,05,24,14,41,18.70
2014,05,24,14,42,18.70
2014,05,24,14,43,18.80
2014,05,24,14,44,18.90
2014,05,24,14,45,18.90
2014,05,24,14,46,18.80
2014,05,24,14,47,18.80
2014,05,24,14,48,18.80
2014,05,24,14,49,18.90
2014,05,24,14,50,18.90
2014,05,24,14,51,18.90
2014,05,24,14,52,19.00
2014,05,24,14,53,19.10
2014,05,24,14,54,19.10
2014,05,24,14,55,19.30
2014,05,24,14,56,19.30
2014,05,24,14,57,19.40
2014,05,24,14,58,19.40
2014,05,24,14,59,19.40
2014,05,24,15,00,19.30
2014,05,24,15,01,19.40
2014,05,24,15,02,19.30
2014,05,24,15,03,19.40
2014,05,24,15,04,19.50
2014,05,24,15,05,19.60
2014,05,24,15,06,19.70
2014,05,24,15,07,19.80
2014,05,24,15,08,19.90
2014,05,24,15,09,19.90
2014,05,24,15,10,19.90
2014,05,24,15,11,19.70
2014,05,24,15,12,19.60
2014,05,24,15,13,19.50
2014,05,24,15,14,19.40
2014,05,24,15,15,19.30
2014,05,24,15,16,19.20
2014,05,24,15,17,19.10
2014,05,24,15,18,19.10
2014,05,24,15,19,19.10
2014,05,24,15,20,19.00
2014,05,24,15,21,18.90
2014,05,24,15,22,18.90
2014,05,24,15,23,18.80
2014,05,24,15,24,18.80
2014,05,24,15,25,18.90
2014,05,24,15,26,18.90
2014,05,24,15,27,18.90
2014,05,24,15,28,18.90
2014,05,24,15,29,19.10
2014,05,24,15,30,19.10
2014,05,24,15,31,19.10
2014,05,24,15,32,19.00
2014,05,24,15,33,18.90
2014,05,24,15,34,19.00
2014,05,24,15,35,19.00
2014,05,24,15,36,18.90
2014,05,24,15,37,18.90
2014,05,24,15,38,18.90
2014,05,24,15,39,18.90
2014,05,24,15,40,18.90
2014,05,24,15,41,18.90
2014,05,24,15,42,18.90
2014,05,24,15,43,19.10
2014,05,24,15,44,19.10
2014,05,24,15,45,19.10
2014,05,24,15,46,19.10
2014,05,24,15,47,19.10
2014,05,24,15,48,19.10
2014,05,24,15,49,19.20
2014,05,24,15,50,19.20
2014,05,24,15,51,19.20
2014,05,24,15,52,19.20
2014,05,24,15,53,19.30
2014,05,24,15,54,19.30
2014,05,24,15,55,19.20
2014,05,24,15,56,19.20
2014,05,24,15,57,19.20
2014,05,24,15,58,19.20
2014,05,24,15,59,19.10
2014,05,24,16,00,19.30
2014,05,24,16,01,19.30
2014,05,24,16,02,19.30
2014,05,24,16,03,19.30
2014,05,24,16,04,19.40
2014,05,24,16,05,19.40
2014,05,24,16,06,19.30
2014,05,24,16,07,19.30
2014,05,24,16,08,19.30
2014,05,24,16,09,19.30
2014,05,24,16,10,19.40
2014,05,24,16,11,19.40
2014,05,24,16,12,19.30
2014,05,24,16,13,19.30
2014,05,24,16,14,19.30
2014,05,24,16,15,19.30
2014,05,24,16,16,19.40
2014,05,24,16,17,19.50
2014,05,24,16,18,19.60
2014,05,24,16,19,19.70
2014,05,24,16,20,19.60
2014,05,24,16,21,19.50
2014,05,24,16,22,19.50
2014,05,24,16,23,19.50
2014,05,24,16,24,19.40
2014,05,24,16,25,19.40
2014,05,24,16,26,19.40
2014,05,24,16,27,19.50
2014,05,24,16,28,19.60
2014,05,24,16,29,19.60
2014,05,24,16,30,19.60
2014,05,24,16,31,19.50
2014,05,24,16,32,19.30
2014,05,24,16,33,19.10
2014,05,24,16,34,19.10
2014,05,24,16,35,19.20
2014,05,24,16,36,19.20
2014,05,24,16,37,19.40
2014,05,24,16,38,19.50
2014,05,24,16,39,19.50
2014,05,24,16,40,19.60
2014,05,24,16,41,19.60
2014,05,24,16,42,19.50
2014,05,24,16,43,19.40
2014,05,24,16,44,19.30
2014,05,24,16,45,19.30
2014,05,24,16,46,19.40
2014,05,24,16,47,19.50
2014,05,24,16,48,19.50
2014,05,24,16,49,19.30
2014,05,24,16,50,19.30
2014,05,24,16,51,19.40
2014,05,24,16,52,19.40
2014,05,24,16,53,19.40
2014,05,24,16,54,19.50
2014,05,24,16,55,19.50
2014,05,24,16,56,19.30
2014,05,24,16,57,19.10
2014,05,24,16,58,19.00
2014,05,24,16,59,19.00
2014,05,24,17,00,19.10
2014,05,24,17,01,19.10
2014,05,24,17,02,19.10
2014,05,24,17,03,19.10
2014,05,24,17,04,19.10
2014,05,24,17,05,18.90
2014,05,24,17,06,18.90
2014,05,24,17,07,18.80
2014,05,24,17,08,18.80
2014,05,24,17,09,18.80
2014,05,24,17,10,18.70
2014,05,24,17,11,18.70
2014,05,24,17,12,18.80
2014,05,24,17,13,18.80
2014,05,24,17,14,18.80
2014,05,24,17,15,18.80
2014,05,24,17,16,18.70
2014,05,24,17,17,18.70
2014,05,24,17,18,18.70
2014,05,24,17,19,18.60
2014,05,24,17,20,18.60
2014,05,24,17,21,18.60
2014,05,24,17,22,18.60
2014,05,24,17,23,18.60
2014,05,24,17,24,18.60